Location: Bermeries
(50.2863°N, 3.7551°E)
Time: 12:48:16
(UTC+00:00)

Timation 1 Rocket - Pass Details

Date: 23 May 2024
Orbit: 898 x 907 km, 70.0° (Epoch: 16 June)

Event Time Altitude Azimuth Distance (km) Brightness Sun altitude
Exits shadow 02:32:21 12° 219° (SW) 2,412 5.9 -9.7°
Maximum altitude 02:37:51 72° 303° (WNW) 946 4.5 -9.1°
Drops below altitude 10° 02:43:49 10° 29° (NNE) 2,585 8.2 -8.5°
Sets 02:46:21 0° 31° (NNE) 3,530 9.4 -8.2°
